This demonstration page uses our WeatherBlox Daily Observations layout. Learn more.

Left ArrowRight Arrow

41.86663, -103.66717

Hourly Observations for April 30, 2017

Temp ( °F °C ) Dew Point ( °F °C ) Humidity (%) Winds ( mph kmh ) Pressure ( in mb ) Visibility ( mi km ) Precip ( " mm )
12:53 am 00:53 Clear 36 2.2 25 -3.9 64 64 N 14 22 30.15 1021 10 16.0934 N/A
1:53 am 01:53 Clear 34 1.1 24 -4.4 67 67 NNW 9 15 30.12 1020 10 16.0934 N/A
2:53 am 02:53 Clear 33 0.6 24 -4.4 70 70 NNW 12 19 30.09 1019 10 16.0934 N/A
3:53 am 03:53 Clear 32 undefined 23 -5 69 69 WNW 9 15 30.1 1019 10 16.0934 N/A
4:53 am 04:53 Clear 29 -1.7 24 -4.4 82 82 WNW 8 13 30.11 1020 10 16.0934 N/A
5:53 am 05:53 Sunny 29 -1.7 23 -5 78 78 WNW 10 17 30.09 1019 10 16.0934 N/A
6:53 am 06:53 Sunny 30 -1.1 23 -5 75 75 WNW 10 17 30.06 1018 10 16.0934 N/A
7:53 am 07:53 Sunny 36 2.2 24 -4.4 62 62 W 9 15 30.02 1017 10 16.0934 N/A
8:53 am 08:53 Sunny 44 6.7 23 -5 43 43 NNW 17 28 30.01 1016 10 16.0934 N/A
9:53 am 09:53 Sunny 47 8.3 24 -4.4 41 41 NNW 18 30 30.01 1016 10 16.0934 N/A
10:53 am 10:53 Sunny 50 10 21 -6.1 32 32 N 22 35 29.99 1016 10 16.0934 N/A
11:53 am 11:53 Sunny 50 10 21 -6.1 32 32 N 17 28 29.96 1015 10 16.0934 N/A
12:53 pm 12:53 Sunny 51 10.6 21 -6.1 31 31 N 20 31 29.93 1014 10 16.0934 N/A
1:53 pm 13:53 Sunny 54 12.2 23 -5 30 30 NNW 24 39 29.88 1012 10 16.0934 N/A
2:53 pm 14:53 Sunny 57 13.9 23 -5 27 27 N 20 31 29.86 1011 10 16.0934 N/A
3:53 pm 15:53 Sunny 58 14.4 25 -3.9 28 28 N 18 30 29.85 1011 10 16.0934 N/A
4:53 pm 16:53 Sunny 58 14.4 24 -4.4 27 27 N 21 33 29.84 1010 10 16.0934 N/A
5:53 pm 17:53 Sunny 58 14.4 24 -4.4 27 27 N 17 28 29.83 1010 10 16.0934 N/A
6:53 pm 18:53 Sunny 56 13.3 25 -3.9 30 30 N 13 20 29.83 1010 10 16.0934 N/A
7:53 pm 19:53 Clear 51 10.6 26 -3.3 38 38 NNW 12 19 29.82 1010 10 16.0934 N/A
8:53 pm 20:53 Mostly Clear 44 6.7 30 -1.1 58 58 NNE 12 19 29.83 1010 10 16.0934 N/A
9:53 pm 21:53 Partly Cloudy 40 4.4 29 -1.7 65 65 N 8 13 29.84 1011 10 16.0934 N/A
10:53 pm 22:53 Partly Cloudy 41 5 28 -2.2 60 60 W 5 7 29.83 1010 10 16.0934 N/A
11:53 pm 23:53 Clear 37 2.8 27 -2.8 67 67 W 8 13 29.85 1011 10 16.0934 N/A

Powered by AerisWeather